This is the latest recevied weather packets stored in our database for station/object KA3BQE-13. If no packets are shown the sender has not sent any weather packets the latest 10 day(s).
| Time | Temp. | Humidity | Pressure | Rain* | Wind** | Luminosity | Snow |
|---|---|---|---|---|---|---|---|
| 1778040366 | 9.44° C | 72% | 1012.2 hPa | 0 mm | - | 0 W/m² | - |
| 1778040062 | 9.44° C | 73% | 1012.2 hPa | 0 mm | - | 0 W/m² | - |
| 1778039759 | 9.44° C | 77% | 1012.5 hPa | 0 mm | - | 0 W/m² | - |
| 1778039456 | 8.89° C | 79% | 1012.5 hPa | 0 mm | - | 0 W/m² | - |
| 1778039153 | 8.33° C | 91% | 1012.7 hPa | 0 mm | - | 0 W/m² | - |
| 1778038850 | 8.89° C | 91% | 1012.5 hPa | 0 mm | - | 0 W/m² | - |
| 1778038547 | 8.89° C | 90% | 1012.5 hPa | 0 mm | - | 0 W/m² | - |
| 1778038244 | 8.89° C | 90% | 1012.5 hPa | 0 mm | - | 0 W/m² | - |
| 1778037942 | 8.89° C | 89% | 1012.5 hPa | 0 mm | - | 0 W/m² | - |
| 1778037638 | 8.89° C | 91% | 1012.6 hPa | 0 mm | - | 0 W/m² | - |
| 1778037336 | 8.89° C | 91% | 1012.7 hPa | 0 mm | - | 0 W/m² | - |
| 1778037033 | 8.89° C | 90% | 1012.7 hPa | 0 mm | - | 0 W/m² | - |
| 1778036731 | 8.89° C | 92% | 1013 hPa | 0 mm | - | 0 W/m² | - |
| 1778036428 | 8.89° C | 91% | 1012.7 hPa | 0 mm | - | 0 W/m² | - |
| 1778036125 | 8.89° C | 90% | 1012.7 hPa | 0 mm | - | 0 W/m² | - |
| 1778035821 | 8.33° C | 90% | 1012.7 hPa | 0 mm | - | 0 W/m² | - |
| 1778035518 | 8.33° C | 91% | 1012.5 hPa | 0 mm | - | 0 W/m² | - |
| 1778035214 | 8.89° C | 92% | 1012.3 hPa | 0 mm | - | 0 W/m² | - |
| 1778034910 | 8.33° C | 91% | 1012.3 hPa | 0 mm | - | 0 W/m² | - |
| 1778034608 | 8.89° C | 92% | 1012.1 hPa | 0 mm | - | 0 W/m² | - |
| 1778034305 | 8.89° C | 91% | 1011.9 hPa | 0 mm | - | 0 W/m² | - |
| 1778034002 | 8.89° C | 90% | 1011.8 hPa | 0 mm | - | 0 W/m² | - |
| 1778033700 | 8.33° C | 90% | 1011.7 hPa | 0 mm | - | 0 W/m² | - |
| 1778033397 | 8.89° C | 92% | 1011.4 hPa | 0 mm | - | 0 W/m² | - |
| 1778033095 | 8.33° C | 91% | 1011.5 hPa | 0 mm | - | 0 W/m² | - |
* Rain latest hour (hover to see other rain measurements)
** Current wind speed in m/s (hover to see current wind gust speed)